     2              OBSERVATION DATA    GPS                 RINEX VERSION / TYPE
TRRINEXO V1.7 IGPP 29-JUL-91 16:40                          PGM / RUN BY / DATE
                                                            COMMENT
Rinex conversion of GPS Trimble data                        COMMENT
Original Marker Name: GAIR                                  COMMENT
Campaign Name: Guadalupe Island 1991                        COMMENT
4-Character Station Name: GAIR                              COMMENT
6-Character Antenna Code: TRMSST                            COMMENT
Vertical Measurement Point: BGP                             COMMENT
Vertical Offset to Rinex Ref. Point: 0.0597                 COMMENT
Radial Measurement Point: NGP                               COMMENT
Radial Offset to Rinex Ref. Point: 0.2334                   COMMENT
Antenna Height from Field Measurement: 1.1170 m             COMMENT
Additional Antenna Identification Info.:                    COMMENT
Model 14532.00                                              COMMENT
Original XYZ: -2643721.9018 -4916170.5937 3076669.7969      COMMENT
New XYZ position is based on association with SCEC monument COMMENT
D5S7I5Q6+0011. Position of that monument is believed to be  COMMENT
valid to within 1 m horizontally; vertical accuracy         COMMENT
should be no worse than 3-times this value.                 COMMENT
                                                            COMMENT
Revised Rinex header created by UCSD GPS archive for        COMMENT
GSAC on 01-Dec-2001 (2001:335) 21:24:35 GMT                 COMMENT
For assistance contact dagnew@ucsd.edu                      COMMENT
or anderson@python.ucsd.edu                                 COMMENT
                                                            COMMENT
UNSTAMPED (AIRPORT)                                         MARKER NAME
jeff SCRIPPS INSTITUTION OF OCEANOGRAPHY                    OBSERVER / AGENCY
422 TRIMBLE 4000 SST 4.11                                   REC # / TYPE / VERS
25 TR 4000SST L1/L2 GEO                                     ANT # / TYPE
 -2643725.2366 -4916174.7912  3076679.3670                  APPROX POSITION XYZ
        1.0326        0.0000        0.0000                  ANTENNA: DELTA H/E/N
     1     2     0                                          WAVELENGTH FACT L1/2
     3    C1    L1    L2                                    # / TYPES OF OBSERV
     0                                                      INTERVAL
  1991     3    16    23     4   33.000000                  TIME OF FIRST OBS
  1991     3    17     0    34    6.000000                  TIME OF LAST OBS
                                                            END OF HEADER
 91  3 16 23  4 33.0000000  0  4 18  2 11 19
  21267075.438           -.31417
  22594558.906           -.20716
  23383032.758           -.25316
  21357246.289           -.53816
 91  3 16 23  4 34.0000000  0  4 18  2 11 19
  21267357.656        1486.302 7
  22594065.391       -2595.521 6
  23382861.813        -911.402 6
  21357213.703        -160.716 6
 91  3 16 23  4 35.0000000  0  4 18  2 11 19
  21267641.789        2973.186 7
  22593572.211       -5190.708 6
  23382687.891       -1822.150 6
  21357192.852        -320.971 6
 91  3 16 23  4 36.0000000  0  4 18  2 11 19
  21267924.227        4460.294 7
  22593078.484       -7785.815 6
  23382516.258       -2732.533 6
  21357155.117        -481.337 6
 91  3 16 23  4 37.0000000  0  4 18  2 11 19
  21268207.289        5947.847 7
  22592584.984      -10380.622 6
  23382340.688       -3642.333 6
  21357126.742        -641.613 6
 91  3 16 23  4 38.0000000  0  4 18  2 11 19
  21268490.141        7435.814 7
  22592090.438      -12975.164 6
  23382170.906       -4551.585 6
  21357090.867        -801.826 6
 91  3 16 23  4 39.0000000  0  4 18  2 11 19
  21268773.430        8924.143 7
  22591597.352      -15569.495 6
  23381994.773       -5460.345 6
  21357064.063        -962.023 6
 91  3 16 23  4 40.0000000  0  4 18  2 11 19
  21269056.719       10412.840 7
  22591104.453      -18163.604 6
  23381825.883       -6368.596 6
  21357032.875       -1122.201 6
 91  3 16 23  4 41.0000000  0  4 18  2 11 19
  21269340.328       11901.942 7
  22590611.367      -20757.455 6
  23381650.203       -7276.310 6
  21357004.273       -1282.318 6
 91  3 16 23  4 42.0000000  0  4 18  2 11 19
  21269623.406       13391.347 7
  22590119.195      -23351.156 6
  23381479.117       -8183.591 6
  21356972.102       -1442.484 6
 91  3 16 23  4 43.0000000  0  4 18  2 11 19
  21269907.180       14881.179 7
  22589625.398      -25944.574 6
  23381305.102       -9090.311 6
  21356941.891       -1602.570 6
 91  3 16 23  4 44.0000000  0  4 18  2 11 19
  21270191.125       16371.312 7
  22589131.555      -28537.840 6
  23381134.109       -9996.608 6
  21356906.656       -1762.702 6
 91  3 16 23  4 45.0000000  0  4 18  2 11 19
  21270474.023       17861.841 7
  22588637.188      -31130.866 6
  23380960.555      -10902.377 6
  21356879.078       -1922.802 6
 91  3 16 23  4 46.0000000  0  4 18  2 11 19
  21270756.906       19352.883 7
  22588145.109      -33723.501 6
  23380787.781      -11807.478 6
  21356850.906       -2082.716 6
 91  3 16 23  4 47.0000000  0  4 18  2 11 19
  21271041.063       20844.211 7
  22587650.055      -36316.007 6
  23380616.242      -12712.176 6
  21356815.828       -2242.697 6
 91  3 16 23  4 48.0000000  0  4 18  2 11 19
  21271325.313       22335.822 7
  22587156.766      -38908.370 6
  23380445.180      -13616.451 6
  21356789.305       -2402.754 6
 91  3 16 23  4 49.0000000  0  4 18  2 11 19
  21271609.375       23827.898 7
  22586662.945      -41500.417 6
  23380271.898      -14520.132 6
  21356758.555       -2562.697 6
 91  3 16 23  4 50.0000000  0  4 18  2 11 19
  21271893.625       25320.284 7
  22586168.742      -44092.304 6
  23380099.828      -15423.370 6
  21356733.031       -2722.677 6
 91  3 16 23  4 51.0000000  0  4 18  2 11 19
  21272177.875       26812.953 7
  22585676.547      -46684.066 6
  23379927.875      -16326.194 6
  21356692.992       -2882.714 6
 91  3 16 23  4 52.0000000  0  4 18  2 11 19
  21272461.477       28306.026 7
  22585184.695      -49275.562 6
  23379757.430      -17228.472 6
  21356675.570       -3042.704 6
 91  3 16 23  4 53.0000000  0  4 18  2 11 19
  21272745.773       29799.477 7
  22584691.773      -51866.839 6
  23379586.414      -18130.256 6
  21356632.422       -3202.647 6
 91  3 16 23  4 54.0000000  0  4 18  2 11 19
  21273030.141       31293.367 7
  22584198.391      -54457.825 6
  23379416.086      -19031.463 6
  21356611.109       -3362.523 6
 91  3 16 23  4 55.0000000  0  4 18  2 11 19
  21273315.273       32787.658 7
  22583705.898      -57048.540 6
  23379242.875      -19932.137 6
  21356574.734       -3522.324 6
 91  3 16 23  4 56.0000000  0  4 18  2 11 19
  21273598.680       34282.237 7
  22583211.961      -59639.130 6
  23379071.219      -20832.389 6
  21356543.883       -3682.195 6
 91  3 16 23  4 57.0000000  0  4 18  2 11 19
  21273882.930       35777.078 7
  22582719.266      -62229.599 6
  23378901.617      -21732.250 6
  21356511.297       -3842.148 6
 91  3 16 23  4 58.0000000  0  4 18  2 11 19
  21274166.789       37272.394 7
  22582225.539      -64819.736 6
  23378729.188      -22631.493 6
  21356477.461       -4001.966 6
